This demonstration page uses our WeatherBlox Daily Observations layout. Learn more.

39.08367, -84.50855

Hourly Observations for August 4, 2019

Temp ( °F °C ) Dew Point ( °F °C ) Humidity (%) Winds ( mph kmh ) Pressure ( in mb ) Visibility ( mi km ) Precip ( " mm )
12:53 am 00:53 Clear 63 17.2 61 16.1 93 93 Calm 30 1016 10 16.09344 0 0
1:53 am 01:53 Clear 63 17.2 61 16.1 93 93 Calm 30 1016 10 16.09344 0 0
2:53 am 02:53 Clear 63 17.2 62 16.7 97 97 Calm 30 1016 8 12.874752 0 0
3:53 am 03:53 Clear 61 16.1 60 15.6 97 97 ENE 5 7 30 1016 8 12.874752 0 0
4:53 am 04:53 Clear 60 15.6 59 15 96 96 NE 5 7 30 1016 7 11.265408 0 0
5:53 am 05:53 Clear 61 16.1 60 15.6 97 97 NE 3 6 30 1016 9 14.484096 0 0
6:15 am 06:15 Mostly Clear 61 16.1 59 15 93 93 Calm 30 1016 9 14.484096 0 0
6:53 am 06:53 Mostly Sunny 59 15 59 15 100 100 Calm 30.03 1017 10 16.09344 0 0
7:53 am 07:53 Mostly Sunny 63 17.2 61 16.1 93 93 NNE 3 6 30.03 1017 10 16.09344 0 0
8:53 am 08:53 Mostly Sunny 68 20 63 17.2 84 84 NE 3 6 30.03 1017 10 16.09344 0 0
9:53 am 09:53 Mostly Sunny 74 23.3 62 16.7 67 67 Calm 30.03 1017 10 16.09344 0 0
10:53 am 10:53 Sunny 78 25.6 65 18.3 64 64 Calm 30.03 1017 10 16.09344 0 0
11:53 am 11:53 Sunny 82 27.8 62 16.7 51 51 Calm 30.03 1017 10 16.09344 0 0
12:53 pm 12:53 Sunny 85 29.4 60 15.6 43 43 ENE 7 11 30 1016 10 16.09344 0 0
1:53 pm 13:53 Sunny 86 30 60 15.6 42 42 E 6 9 30 1016 10 16.09344 0 0
2:53 pm 14:53 Sunny 88 31.1 58 14.4 36 36 NNE 5 7 29.97 1015 10 16.09344 0 0
3:53 pm 15:53 Mostly Sunny 87 30.6 58 14.4 37 37 E 6 9 29.97 1015 10 16.09344 0 0
4:53 pm 16:53 Sunny 88 31.1 58 14.4 36 36 E 8 13 29.94 1014 10 16.09344 0 0
5:53 pm 17:53 Sunny 87 30.6 60 15.6 40 40 ESE 6 9 29.94 1014 10 16.09344 0 0
6:53 pm 18:53 Mostly Sunny 87 30.6 58 14.4 37 37 Calm 29.94 1014 10 16.09344 0 0
7:53 pm 19:53 Mostly Sunny 82 27.8 68 20 63 63 E 3 6 29.94 1014 10 16.09344 0 0
8:53 pm 20:53 Mostly Cloudy 77 25 66 18.9 69 69 Calm 29.94 1014 10 16.09344 0 0
9:53 pm 21:53 Mostly Clear 72 22.2 67 19.4 84 84 Calm 29.97 1015 10 16.09344 0 0
10:53 pm 22:53 Partly Cloudy 70 21.1 65 18.3 84 84 Calm 29.97 1015 10 16.09344 0 0
11:53 pm 23:53 Clear 69 20.6 64 17.8 84 84 Calm 29.97 1015 10 16.09344 0 0

Powered by AerisWeather